San Diego, CA

10:03 PM PST on February 11, 2016 (GMT -0800)
North Island Naval Air Station

Weather History for KNZY - November, 2013

Change the Weather History Date:

Friday, November 29, 2013

  Actual Average (WUND) Record (WUND)
Temperature  
Mean Temperature 65 °F -  
Max Temperature 69 °F - - (-1)
Min Temperature 61 °F - - (-1)
Growing Degree Days 15 (Base 50)    
Moisture  
Dew Point 54 °F    
Average Humidity 67    
Maximum Humidity 75    
Minimum Humidity 54    
Precipitation  
Precipitation 0.00 in - - ()
Sea Level Pressure  
Sea Level Pressure 30.11 in    
Wind  
Wind Speed 3 mph (ESE)    
Max Wind Speed 8 mph    
Max Gust Speed -    
Visibility 9 miles    
Events Rain    
Averages and records for this station are not official NWS values.
T = Trace of Precipitation, MM = Missing Value Source: NWS Daily Summary

Daily Weather History Graph

Daily Weather History Graph

Search for Another Location

Airport or City:

Trip Planner

Search our weather history database for the weather conditions in past years. The results will help you decide how hot, cold, wet, or windy it might be!

Date:

Astronomy

Nov. 29, 2013 Rise Set
Actual Time 6:31 AM PST 4:42 PM PST
Civil Twilight 6:04 AM PST 5:09 PM PST
Nautical Twilight 5:34 AM PST 5:39 PM PST
Astronomical Twilight 5:04 AM PST 6:09 PM PST
Moon 2:52 AM PST (11/29) 2:21 PM PST (11/29)
Length of Visible Light 11h 04m
Length of Day
10h 11m
Waning Crescent, 13% of the Moon is Illuminated
Nov 29
Waning Crescent
Dec 2
New
Dec 9
First Quarter
Dec 17
Full
Dec 25
Last Quarter

Hourly Weather History & Observations

Time (PST) Temp. Dew Point Humidity Pressure Visibility Wind Dir Wind Speed Gust Speed Precip Events Conditions
12:31 AM 62.1 °F 53.1 °F 72% 30.05 in 7.0 mi East 6.9 mph - 0.00 in   Mostly Cloudy
12:52 AM 62.1 °F 53.1 °F 72% 30.05 in 8.0 mi East 5.8 mph - 0.00 in   Mostly Cloudy
1:23 AM 63.0 °F 53.1 °F 70% 30.06 in 6.0 mi East 3.5 mph - 0.00 in Rain Light Rain
1:52 AM 63.0 °F 53.1 °F 70% 30.06 in 6.0 mi Calm Calm - 0.00 in Rain Light Rain
2:52 AM 62.1 °F 52.0 °F 70% 30.06 in 6.0 mi Calm Calm - 0.00 in Rain Light Rain
3:33 AM 62.1 °F 52.0 °F 70% 30.05 in 8.0 mi Calm Calm - 0.00 in   Mostly Cloudy
3:52 AM 62.1 °F 53.1 °F 72% 30.05 in 8.0 mi Calm Calm - 0.00 in   Mostly Cloudy
4:52 AM 63.0 °F 53.1 °F 70% 30.06 in 8.0 mi NNE 4.6 mph - N/A   Mostly Cloudy
5:52 AM 62.1 °F 52.0 °F 70% 30.08 in 8.0 mi Calm Calm - N/A   Mostly Cloudy
6:52 AM 61.0 °F 50.0 °F 67% 30.10 in 10.0 mi East 4.6 mph - N/A   Mostly Cloudy
7:52 AM 64.9 °F 48.9 °F 56% 30.11 in 10.0 mi Calm Calm - N/A   Mostly Cloudy
8:52 AM 66.9 °F 51.1 °F 57% 30.14 in 10.0 mi Calm Calm - N/A   Mostly Cloudy
9:19 AM 66.9 °F 50.0 °F 54% 30.15 in 10.0 mi NNW 3.5 mph - 0.00 in Rain Light Rain
9:52 AM 68.0 °F 52.0 °F 56% 30.15 in 7.0 mi Calm Calm - 0.00 in Rain Light Rain
10:11 AM 68.0 °F 54.0 °F 61% 30.16 in 10.0 mi Calm Calm - 0.00 in   Overcast
10:52 AM 69.1 °F 55.9 °F 63% 30.15 in 10.0 mi Calm Calm - 0.00 in Rain Light Rain
11:52 AM 69.1 °F 55.0 °F 61% 30.13 in 10.0 mi Calm Calm - 0.00 in Rain Light Rain
12:52 PM 69.1 °F 54.0 °F 58% 30.11 in 10.0 mi Calm Calm - 0.00 in   Overcast
1:52 PM 68.0 °F 54.0 °F 61% 30.10 in 10.0 mi SSE 8.1 mph - N/A   Overcast
2:52 PM 68.0 °F 54.0 °F 61% 30.08 in 10.0 mi SE 4.6 mph - N/A   Mostly Cloudy
3:52 PM 68.0 °F 55.0 °F 63% 30.09 in 10.0 mi South 3.5 mph - N/A   Mostly Cloudy
4:52 PM 66.9 °F 55.9 °F 68% 30.10 in 10.0 mi SW 3.5 mph - N/A   Mostly Cloudy
5:52 PM 66.9 °F 55.0 °F 66% 30.12 in 10.0 mi SSW 3.5 mph - N/A   Mostly Cloudy
6:52 PM 66.0 °F 55.0 °F 68% 30.12 in 10.0 mi Calm Calm - N/A   Mostly Cloudy
7:52 PM 64.9 °F 55.9 °F 73% 30.13 in 10.0 mi Calm Calm - N/A   Mostly Cloudy
8:52 PM 64.0 °F 55.9 °F 75% 30.15 in 10.0 mi Calm Calm - N/A   Mostly Cloudy
9:52 PM 64.0 °F 55.9 °F 75% 30.16 in 10.0 mi North 3.5 mph - N/A   Mostly Cloudy
10:52 PM 64.0 °F 55.9 °F 75% 30.16 in 10.0 mi NW 3.5 mph - N/A   Mostly Cloudy
11:52 PM 62.1 °F 54.0 °F 75% 30.16 in 10.0 mi Calm Calm - N/A   Scattered Clouds